Year,Month,Day,Hour,Minute,Value (Times are PST for temperature in C)
2010,07,24,00,00,17.70
2010,07,24,00,01,17.70
2010,07,24,00,02,17.60
2010,07,24,00,03,17.60
2010,07,24,00,04,17.50
2010,07,24,00,05,17.50
2010,07,24,00,06,17.40
2010,07,24,00,07,17.40
2010,07,24,00,08,17.30
2010,07,24,00,09,17.30
2010,07,24,00,10,17.20
2010,07,24,00,11,17.10
2010,07,24,00,12,17.00
2010,07,24,00,13,16.90
2010,07,24,00,14,16.90
2010,07,24,00,15,16.80
2010,07,24,00,16,16.80
2010,07,24,00,17,16.70
2010,07,24,00,18,16.70
2010,07,24,00,19,16.70
2010,07,24,00,20,16.70
2010,07,24,00,21,16.70
2010,07,24,00,22,16.70
2010,07,24,00,23,16.60
2010,07,24,00,24,16.60
2010,07,24,00,25,16.60
2010,07,24,00,26,16.60
2010,07,24,00,27,16.60
2010,07,24,00,28,16.50
2010,07,24,00,29,16.40
2010,07,24,00,30,16.40
2010,07,24,00,31,16.40
2010,07,24,00,32,16.40
2010,07,24,00,33,16.40
2010,07,24,00,34,16.40
2010,07,24,00,35,16.40
2010,07,24,00,36,16.40
2010,07,24,00,37,16.40
2010,07,24,00,38,16.40
2010,07,24,00,39,16.40
2010,07,24,00,40,16.30
2010,07,24,00,41,16.20
2010,07,24,00,42,16.10
2010,07,24,00,43,16.10
2010,07,24,00,44,16.00
2010,07,24,00,45,15.90
2010,07,24,00,46,15.80
2010,07,24,00,47,15.80
2010,07,24,00,48,15.70
2010,07,24,00,49,15.80
2010,07,24,00,50,15.80
2010,07,24,00,51,16.00
2010,07,24,00,52,16.10
2010,07,24,00,53,16.20
2010,07,24,00,54,16.30
2010,07,24,00,55,16.40
2010,07,24,00,56,16.50
2010,07,24,00,57,16.60
2010,07,24,00,58,16.60
2010,07,24,00,59,16.70
2010,07,24,01,00,16.70
2010,07,24,01,01,16.70
2010,07,24,01,02,16.70
2010,07,24,01,03,16.70
2010,07,24,01,04,16.90
2010,07,24,01,05,16.90
2010,07,24,01,06,17.00
2010,07,24,01,07,17.10
2010,07,24,01,08,17.20
2010,07,24,01,09,17.30
2010,07,24,01,10,17.40
2010,07,24,01,11,17.40
2010,07,24,01,12,17.50
2010,07,24,01,13,17.60
2010,07,24,01,14,17.70
2010,07,24,01,15,17.70
2010,07,24,01,16,17.80
2010,07,24,01,17,17.90
2010,07,24,01,18,17.90
2010,07,24,01,19,17.90
2010,07,24,01,20,18.00
2010,07,24,01,21,18.00
2010,07,24,01,22,18.10
2010,07,24,01,23,18.10
2010,07,24,01,24,18.20
2010,07,24,01,25,18.10
2010,07,24,01,26,18.10
2010,07,24,01,27,18.20
2010,07,24,01,28,18.20
2010,07,24,01,29,18.20
2010,07,24,01,30,18.20
2010,07,24,01,31,18.20
2010,07,24,01,32,18.20
2010,07,24,01,33,18.20
2010,07,24,01,34,18.20
2010,07,24,01,35,18.20
2010,07,24,01,36,18.20
2010,07,24,01,37,18.20
2010,07,24,01,38,18.20
2010,07,24,01,39,18.20
2010,07,24,01,40,18.20
2010,07,24,01,41,18.20
2010,07,24,01,42,18.20
2010,07,24,01,43,18.20
2010,07,24,01,44,18.20
2010,07,24,01,45,18.20
2010,07,24,01,46,18.20
2010,07,24,01,47,18.20
2010,07,24,01,48,18.20
2010,07,24,01,49,18.10
2010,07,24,01,50,17.90
2010,07,24,01,51,17.90
2010,07,24,01,52,17.80
2010,07,24,01,53,17.90
2010,07,24,01,54,17.90
2010,07,24,01,55,17.90
2010,07,24,01,56,17.80
2010,07,24,01,57,17.80
2010,07,24,01,58,17.80
2010,07,24,01,59,17.80
2010,07,24,02,00,17.80
2010,07,24,02,01,17.80
2010,07,24,02,02,17.80
2010,07,24,02,03,17.80
2010,07,24,02,04,17.80
2010,07,24,02,05,17.80
2010,07,24,02,06,17.80
2010,07,24,02,07,17.90
2010,07,24,02,08,17.90
2010,07,24,02,09,17.90
2010,07,24,02,10,17.90
2010,07,24,02,11,17.90
2010,07,24,02,12,17.90
2010,07,24,02,13,17.90
2010,07,24,02,14,17.90
2010,07,24,02,15,17.90
2010,07,24,02,16,17.90
2010,07,24,02,17,17.90
2010,07,24,02,18,17.90
2010,07,24,02,19,17.90
2010,07,24,02,20,17.90
2010,07,24,02,21,17.90
2010,07,24,02,22,17.90
2010,07,24,02,23,17.90
2010,07,24,02,24,17.90
2010,07,24,02,25,18.00
2010,07,24,02,26,18.10
2010,07,24,02,27,18.10
2010,07,24,02,28,18.10
2010,07,24,02,29,18.10
2010,07,24,02,30,18.10
2010,07,24,02,31,17.90
2010,07,24,02,32,17.90
2010,07,24,02,33,17.90
2010,07,24,02,34,17.80
2010,07,24,02,35,17.70
2010,07,24,02,36,17.70
2010,07,24,02,37,17.70
2010,07,24,02,38,17.70
2010,07,24,02,39,17.70
2010,07,24,02,40,17.70
2010,07,24,02,41,17.70
2010,07,24,02,42,17.60
2010,07,24,02,43,17.60
2010,07,24,02,44,17.50
2010,07,24,02,45,17.40
2010,07,24,02,46,17.40
2010,07,24,02,47,17.30
2010,07,24,02,48,17.30
2010,07,24,02,49,17.30
2010,07,24,02,50,17.30
2010,07,24,02,51,17.30
2010,07,24,02,52,17.30
2010,07,24,02,53,17.20
2010,07,24,02,54,17.20
2010,07,24,02,55,17.10
2010,07,24,02,56,17.00
2010,07,24,02,57,16.90
2010,07,24,02,58,16.90
2010,07,24,02,59,16.80
2010,07,24,03,00,16.70
2010,07,24,03,01,16.70
2010,07,24,03,02,16.60
2010,07,24,03,03,16.50
2010,07,24,03,04,16.40
2010,07,24,03,05,16.40
2010,07,24,03,06,16.40
2010,07,24,03,07,16.40
2010,07,24,03,08,16.40
2010,07,24,03,09,16.40
2010,07,24,03,10,16.50
2010,07,24,03,11,16.70
2010,07,24,03,12,16.70
2010,07,24,03,13,16.80
2010,07,24,03,14,16.90
2010,07,24,03,15,17.00
2010,07,24,03,16,17.00
2010,07,24,03,17,17.10
2010,07,24,03,18,17.30
2010,07,24,03,19,17.30
2010,07,24,03,20,17.30
2010,07,24,03,21,17.30
2010,07,24,03,22,17.30
2010,07,24,03,23,17.30
2010,07,24,03,24,17.30
2010,07,24,03,25,17.30
2010,07,24,03,26,17.30
2010,07,24,03,27,17.30
2010,07,24,03,28,17.30
2010,07,24,03,29,17.30
2010,07,24,03,30,17.30
2010,07,24,03,31,17.30
2010,07,24,03,32,17.30
2010,07,24,03,33,17.30
2010,07,24,03,34,17.30
2010,07,24,03,35,17.30
2010,07,24,03,36,17.30
2010,07,24,03,37,17.30
2010,07,24,03,38,17.30
2010,07,24,03,39,17.30
2010,07,24,03,40,17.30
2010,07,24,03,41,17.30
2010,07,24,03,42,17.30
2010,07,24,03,43,17.30
2010,07,24,03,44,17.30
2010,07,24,03,45,17.20
2010,07,24,03,46,17.10
2010,07,24,03,47,17.10
2010,07,24,03,48,17.00
2010,07,24,03,49,16.90
2010,07,24,03,50,16.80
2010,07,24,03,51,16.70
2010,07,24,03,52,16.60
2010,07,24,03,53,16.60
2010,07,24,03,54,16.60
2010,07,24,03,55,16.50
2010,07,24,03,56,16.40
2010,07,24,03,57,16.60
2010,07,24,03,58,16.60
2010,07,24,03,59,16.70
2010,07,24,04,00,16.70
2010,07,24,04,01,16.70
2010,07,24,04,02,16.70
2010,07,24,04,03,16.70
2010,07,24,04,04,16.70
2010,07,24,04,05,16.70
2010,07,24,04,06,16.70
2010,07,24,04,07,16.70
2010,07,24,04,08,16.70
2010,07,24,04,09,16.70
2010,07,24,04,10,16.70
2010,07,24,04,11,16.70
2010,07,24,04,12,16.70
2010,07,24,04,13,16.70
2010,07,24,04,14,16.70
2010,07,24,04,15,16.70
2010,07,24,04,16,16.70
2010,07,24,04,17,16.70
2010,07,24,04,18,16.70
2010,07,24,04,19,16.70
2010,07,24,04,20,16.70
2010,07,24,04,21,16.70
2010,07,24,04,22,16.70
2010,07,24,04,23,16.70
2010,07,24,04,24,16.60
2010,07,24,04,25,16.50
2010,07,24,04,26,16.40
2010,07,24,04,27,16.40
2010,07,24,04,28,16.40
2010,07,24,04,29,16.40
2010,07,24,04,30,16.50
2010,07,24,04,31,16.60
2010,07,24,04,32,16.60
2010,07,24,04,33,16.60
2010,07,24,04,34,16.50
2010,07,24,04,35,16.40
2010,07,24,04,36,16.40
2010,07,24,04,37,16.40
2010,07,24,04,38,16.40
2010,07,24,04,39,16.40
2010,07,24,04,40,16.40
2010,07,24,04,41,16.30
2010,07,24,04,42,16.30
2010,07,24,04,43,16.30
2010,07,24,04,44,16.20
2010,07,24,04,45,16.20
2010,07,24,04,46,16.10
2010,07,24,04,47,16.10
2010,07,24,04,48,15.90
2010,07,24,04,49,15.80
2010,07,24,04,50,15.80
2010,07,24,04,51,15.70
2010,07,24,04,52,15.60
2010,07,24,04,53,15.60
2010,07,24,04,54,15.50
2010,07,24,04,55,15.50
2010,07,24,04,56,15.40
2010,07,24,04,57,15.30
2010,07,24,04,58,15.30
2010,07,24,04,59,15.30
2010,07,24,05,00,15.30
2010,07,24,05,01,15.30
2010,07,24,05,02,15.20
2010,07,24,05,03,15.20
2010,07,24,05,04,15.20
2010,07,24,05,05,15.20
2010,07,24,05,06,15.20
2010,07,24,05,07,15.20
2010,07,24,05,08,15.10
2010,07,24,05,09,15.10
2010,07,24,05,10,15.00
2010,07,24,05,11,15.00
2010,07,24,05,12,14.90
2010,07,24,05,13,14.90
2010,07,24,05,14,14.80
2010,07,24,05,15,14.80
2010,07,24,05,16,14.80
2010,07,24,05,17,14.70
2010,07,24,05,18,14.60
2010,07,24,05,19,14.50
2010,07,24,05,20,14.50
2010,07,24,05,21,14.40
2010,07,24,05,22,14.40
2010,07,24,05,23,14.30
2010,07,24,05,24,14.20
2010,07,24,05,25,14.20
2010,07,24,05,26,14.20
2010,07,24,05,27,14.10
2010,07,24,05,28,14.10
2010,07,24,05,29,14.10
2010,07,24,05,30,14.20
2010,07,24,05,31,14.20
2010,07,24,05,32,14.20
2010,07,24,05,33,14.20
2010,07,24,05,34,14.20
2010,07,24,05,35,14.20
2010,07,24,05,36,14.20
2010,07,24,05,37,14.20
2010,07,24,05,38,14.20
2010,07,24,05,39,14.20
2010,07,24,05,40,14.20
2010,07,24,05,41,14.20
2010,07,24,05,42,14.20
2010,07,24,05,43,14.30
2010,07,24,05,44,14.40
2010,07,24,05,45,14.40
2010,07,24,05,46,14.50
2010,07,24,05,47,14.50
2010,07,24,05,48,14.50
2010,07,24,05,49,14.50
2010,07,24,05,50,14.60
2010,07,24,05,51,14.60
2010,07,24,05,52,14.70
2010,07,24,05,53,14.70
2010,07,24,05,54,14.70
2010,07,24,05,55,14.70
2010,07,24,05,56,14.70
2010,07,24,05,57,14.80
2010,07,24,05,58,14.80
2010,07,24,05,59,14.80
2010,07,24,06,00,14.80
2010,07,24,06,01,14.80
2010,07,24,06,02,14.80
2010,07,24,06,03,14.80
2010,07,24,06,04,14.80
2010,07,24,06,05,14.80
2010,07,24,06,06,14.80
2010,07,24,06,07,14.80
2010,07,24,06,08,14.80
2010,07,24,06,09,14.80
2010,07,24,06,10,14.80
2010,07,24,06,11,14.90
2010,07,24,06,12,15.00
2010,07,24,06,13,15.10
2010,07,24,06,14,15.20
2010,07,24,06,15,15.30
2010,07,24,06,16,15.30
2010,07,24,06,17,15.30
2010,07,24,06,18,15.30
2010,07,24,06,19,15.30
2010,07,24,06,20,15.30
2010,07,24,06,21,15.30
2010,07,24,06,22,15.40
2010,07,24,06,23,15.40
2010,07,24,06,24,15.50
2010,07,24,06,25,15.60
2010,07,24,06,26,15.70
2010,07,24,06,27,15.80
2010,07,24,06,28,15.90
2010,07,24,06,29,16.10
2010,07,24,06,30,16.20
2010,07,24,06,31,16.30
2010,07,24,06,32,16.30
2010,07,24,06,33,16.40
2010,07,24,06,34,16.40
2010,07,24,06,35,16.40
2010,07,24,06,36,16.50
2010,07,24,06,37,16.60
2010,07,24,06,38,16.60
2010,07,24,06,39,16.60
2010,07,24,06,40,16.70
2010,07,24,06,41,16.70
2010,07,24,06,42,16.70
2010,07,24,06,43,16.70
2010,07,24,06,44,16.70
2010,07,24,06,45,16.70
2010,07,24,06,46,16.70
2010,07,24,06,47,16.80
2010,07,24,06,48,16.80
2010,07,24,06,49,16.80
2010,07,24,06,50,16.80
2010,07,24,06,51,16.80
2010,07,24,06,52,16.90
2010,07,24,06,53,16.90
2010,07,24,06,54,16.90
2010,07,24,06,55,16.90
2010,07,24,06,56,17.00
2010,07,24,06,57,17.00
2010,07,24,06,58,17.00
2010,07,24,06,59,17.10
2010,07,24,07,00,17.10
2010,07,24,07,01,17.10
2010,07,24,07,02,17.10
2010,07,24,07,03,17.10
2010,07,24,07,04,17.10
2010,07,24,07,05,17.10
2010,07,24,07,06,17.10
2010,07,24,07,07,17.10
2010,07,24,07,08,17.10
2010,07,24,07,09,17.10
2010,07,24,07,10,17.10
2010,07,24,07,11,17.10
2010,07,24,07,12,17.10
2010,07,24,07,13,17.10
2010,07,24,07,14,17.10
2010,07,24,07,15,17.10
2010,07,24,07,16,17.10
2010,07,24,07,17,17.10
2010,07,24,07,18,17.20
2010,07,24,07,19,17.20
2010,07,24,07,20,17.20
2010,07,24,07,21,17.20
2010,07,24,07,22,17.20
2010,07,24,07,23,17.20
2010,07,24,07,24,17.20
2010,07,24,07,25,17.20
2010,07,24,07,26,17.20
2010,07,24,07,27,17.30
2010,07,24,07,28,17.30
2010,07,24,07,29,17.30
2010,07,24,07,30,17.30
2010,07,24,07,31,17.30
2010,07,24,07,32,17.30
2010,07,24,07,33,17.30
2010,07,24,07,34,17.30
2010,07,24,07,35,17.30
2010,07,24,07,36,17.30
2010,07,24,07,37,17.30
2010,07,24,07,38,17.30
2010,07,24,07,39,17.40
2010,07,24,07,40,17.40
2010,07,24,07,41,17.40
2010,07,24,07,42,17.40
2010,07,24,07,43,17.40
2010,07,24,07,44,17.50
2010,07,24,07,45,17.50
2010,07,24,07,46,17.50
2010,07,24,07,47,17.50
2010,07,24,07,48,17.50
2010,07,24,07,49,17.60
2010,07,24,07,50,17.60
2010,07,24,07,51,17.60
2010,07,24,07,52,17.60
2010,07,24,07,53,17.70
2010,07,24,07,54,17.70
2010,07,24,07,55,17.70
2010,07,24,07,56,17.70
2010,07,24,07,57,17.70
2010,07,24,07,58,17.70
2010,07,24,07,59,17.70
2010,07,24,08,00,17.70
2010,07,24,08,01,17.70
2010,07,24,08,02,17.80
2010,07,24,08,03,17.80
2010,07,24,08,04,17.80
2010,07,24,08,05,17.80
2010,07,24,08,06,17.80
2010,07,24,08,07,17.80
2010,07,24,08,08,17.80
2010,07,24,08,09,17.80
2010,07,24,08,10,17.70
2010,07,24,08,11,17.70
2010,07,24,08,12,17.70
2010,07,24,08,13,17.70
2010,07,24,08,14,17.70
2010,07,24,08,15,17.70
2010,07,24,08,16,17.70
2010,07,24,08,17,17.70
2010,07,24,08,18,17.70
2010,07,24,08,19,17.70
2010,07,24,08,20,17.80
2010,07,24,08,21,17.80
2010,07,24,08,22,17.80
2010,07,24,08,23,17.80
2010,07,24,08,24,17.90
2010,07,24,08,25,17.90
2010,07,24,08,26,17.90
2010,07,24,08,27,18.00
2010,07,24,08,28,18.10
2010,07,24,08,29,18.00
2010,07,24,08,30,17.90
2010,07,24,08,31,17.90
2010,07,24,08,32,17.90
2010,07,24,08,33,17.90
2010,07,24,08,34,17.90
2010,07,24,08,35,17.90
2010,07,24,08,36,17.90
2010,07,24,08,37,17.90
2010,07,24,08,38,17.90
2010,07,24,08,39,17.90
2010,07,24,08,40,17.90
2010,07,24,08,41,17.90
2010,07,24,08,42,17.90
2010,07,24,08,43,18.00
2010,07,24,08,44,18.10
2010,07,24,08,45,18.10
2010,07,24,08,46,17.90
2010,07,24,08,47,17.90
2010,07,24,08,48,18.00
2010,07,24,08,49,18.10
2010,07,24,08,50,18.10
2010,07,24,08,51,18.10
2010,07,24,08,52,18.10
2010,07,24,08,53,18.20
2010,07,24,08,54,18.20
2010,07,24,08,55,18.20
2010,07,24,08,56,18.30
2010,07,24,08,57,18.30
2010,07,24,08,58,18.30
2010,07,24,08,59,18.30
2010,07,24,09,00,18.30
2010,07,24,09,01,18.30
2010,07,24,09,02,18.30
2010,07,24,09,03,18.20
2010,07,24,09,04,18.20
2010,07,24,09,05,18.20
2010,07,24,09,06,18.20
2010,07,24,09,07,18.10
2010,07,24,09,08,18.10
2010,07,24,09,09,18.10
2010,07,24,09,10,18.10
2010,07,24,09,11,18.10
2010,07,24,09,12,18.10
2010,07,24,09,13,18.10
2010,07,24,09,14,18.10
2010,07,24,09,15,18.10
2010,07,24,09,16,18.10
2010,07,24,09,17,18.10
2010,07,24,09,18,18.10
2010,07,24,09,19,18.20
2010,07,24,09,20,18.20
2010,07,24,09,21,18.30
2010,07,24,09,22,18.30
2010,07,24,09,23,18.40
2010,07,24,09,24,18.50
2010,07,24,09,25,18.50
2010,07,24,09,26,18.50
2010,07,24,09,27,18.50
2010,07,24,09,28,18.50
2010,07,24,09,29,18.50
2010,07,24,09,30,18.50
2010,07,24,09,31,18.50
2010,07,24,09,32,18.50
2010,07,24,09,33,18.50
2010,07,24,09,34,18.50
2010,07,24,09,35,18.60
2010,07,24,09,36,18.70
2010,07,24,09,37,18.70
2010,07,24,09,38,18.80
2010,07,24,09,39,18.80
2010,07,24,09,40,18.80
2010,07,24,09,41,18.70
2010,07,24,09,42,18.70
2010,07,24,09,43,18.70
2010,07,24,09,44,18.70
2010,07,24,09,45,18.70
2010,07,24,09,46,18.60
2010,07,24,09,47,18.60
2010,07,24,09,48,18.60
2010,07,24,09,49,18.60
2010,07,24,09,50,18.60
2010,07,24,09,51,18.60
2010,07,24,09,52,18.50
2010,07,24,09,53,18.50
2010,07,24,09,54,18.50
2010,07,24,09,55,18.50
2010,07,24,09,56,18.40
2010,07,24,09,57,18.40
2010,07,24,09,58,18.30
2010,07,24,09,59,18.30
2010,07,24,10,00,18.30
2010,07,24,10,01,18.40
2010,07,24,10,02,18.40
2010,07,24,10,03,18.40
2010,07,24,10,04,18.50
2010,07,24,10,05,18.50
2010,07,24,10,06,18.50
2010,07,24,10,07,18.50
2010,07,24,10,08,18.50
2010,07,24,10,09,18.60
2010,07,24,10,10,18.80
2010,07,24,10,11,18.80
2010,07,24,10,12,18.80
2010,07,24,10,13,18.90
2010,07,24,10,14,18.90
2010,07,24,10,15,18.90
2010,07,24,10,16,18.90
2010,07,24,10,17,18.90
2010,07,24,10,18,18.70
2010,07,24,10,19,18.70
2010,07,24,10,20,18.60
2010,07,24,10,21,18.60
2010,07,24,10,22,18.60
2010,07,24,10,23,18.60
2010,07,24,10,24,18.60
2010,07,24,10,25,18.70
2010,07,24,10,26,18.80
2010,07,24,10,27,18.80
2010,07,24,10,28,18.80
2010,07,24,10,29,18.90
2010,07,24,10,30,18.90
2010,07,24,10,31,18.90
2010,07,24,10,32,18.90
2010,07,24,10,33,19.00
2010,07,24,10,34,19.10
2010,07,24,10,35,19.10
2010,07,24,10,36,19.10
2010,07,24,10,37,19.10
2010,07,24,10,38,19.00
2010,07,24,10,39,18.90
2010,07,24,10,40,19.00
2010,07,24,10,41,19.10
2010,07,24,10,42,19.10
2010,07,24,10,43,19.10
2010,07,24,10,44,19.20
2010,07,24,10,45,19.30
2010,07,24,10,46,19.30
2010,07,24,10,47,19.40
2010,07,24,10,48,19.40
2010,07,24,10,49,19.40
2010,07,24,10,50,19.40
2010,07,24,10,51,19.50
2010,07,24,10,52,19.50
2010,07,24,10,53,19.50
2010,07,24,10,54,19.50
2010,07,24,10,55,19.50
2010,07,24,10,56,19.50
2010,07,24,10,57,19.60
2010,07,24,10,58,19.60
2010,07,24,10,59,19.60
2010,07,24,11,00,19.70
2010,07,24,11,01,19.80
2010,07,24,11,02,19.70
2010,07,24,11,03,19.70
2010,07,24,11,04,19.70
2010,07,24,11,05,19.80
2010,07,24,11,06,19.90
2010,07,24,11,07,19.90
2010,07,24,11,08,19.90
2010,07,24,11,09,19.90
2010,07,24,11,10,19.90
2010,07,24,11,11,19.90
2010,07,24,11,12,19.90
2010,07,24,11,13,19.90
2010,07,24,11,14,19.90
2010,07,24,11,15,19.90
2010,07,24,11,16,19.90
2010,07,24,11,17,19.80
2010,07,24,11,18,19.80
2010,07,24,11,19,19.80
2010,07,24,11,20,19.80
2010,07,24,11,21,19.80
2010,07,24,11,22,19.90
2010,07,24,11,23,19.90
2010,07,24,11,24,19.90
2010,07,24,11,25,19.90
2010,07,24,11,26,19.90
2010,07,24,11,27,19.90
2010,07,24,11,28,19.90
2010,07,24,11,29,19.90
2010,07,24,11,30,19.90
2010,07,24,11,31,19.90
2010,07,24,11,32,19.90
2010,07,24,11,33,19.90
2010,07,24,11,34,19.90
2010,07,24,11,35,19.90
2010,07,24,11,36,19.90
2010,07,24,11,37,19.90
2010,07,24,11,38,19.90
2010,07,24,11,39,19.90
2010,07,24,11,40,20.00
2010,07,24,11,41,20.20
2010,07,24,11,42,20.10
2010,07,24,11,43,19.90
2010,07,24,11,44,19.90
2010,07,24,11,45,19.90
2010,07,24,11,46,20.00
2010,07,24,11,47,20.10
2010,07,24,11,48,20.10
2010,07,24,11,49,20.20
2010,07,24,11,50,20.20
2010,07,24,11,51,20.20
2010,07,24,11,52,20.40
2010,07,24,11,53,20.40
2010,07,24,11,54,20.50
2010,07,24,11,55,20.60
2010,07,24,11,56,20.80
2010,07,24,11,57,20.90
2010,07,24,11,58,21.00
2010,07,24,11,59,20.90
2010,07,24,12,00,20.80
2010,07,24,12,01,20.70
2010,07,24,12,02,20.60
2010,07,24,12,03,20.50
2010,07,24,12,04,20.40
2010,07,24,12,05,20.40
2010,07,24,12,06,20.40
2010,07,24,12,07,20.50
2010,07,24,12,08,20.60
2010,07,24,12,09,20.70
2010,07,24,12,10,20.80
2010,07,24,12,11,20.90
2010,07,24,12,12,20.80
2010,07,24,12,13,20.80
2010,07,24,12,14,20.90
2010,07,24,12,15,20.90
2010,07,24,12,16,20.90
2010,07,24,12,17,20.90
2010,07,24,12,18,20.80
2010,07,24,12,19,20.80
2010,07,24,12,20,20.80
2010,07,24,12,21,20.70
2010,07,24,12,22,20.60
2010,07,24,12,23,20.60
2010,07,24,12,24,20.60
2010,07,24,12,25,20.60
2010,07,24,12,26,20.60
2010,07,24,12,27,20.70
2010,07,24,12,28,20.80
2010,07,24,12,29,20.90
2010,07,24,12,30,21.00
2010,07,24,12,31,21.00
2010,07,24,12,32,21.00
2010,07,24,12,33,21.10
2010,07,24,12,34,21.10
2010,07,24,12,35,21.10
2010,07,24,12,36,21.20
2010,07,24,12,37,21.20
2010,07,24,12,38,21.30
2010,07,24,12,39,21.40
2010,07,24,12,40,21.50
2010,07,24,12,41,21.50
2010,07,24,12,42,21.60
2010,07,24,12,43,21.50
2010,07,24,12,44,21.40
2010,07,24,12,45,21.30
2010,07,24,12,46,21.30
2010,07,24,12,47,21.30
2010,07,24,12,48,21.30
2010,07,24,12,49,21.40
2010,07,24,12,50,21.50
2010,07,24,12,51,21.60
2010,07,24,12,52,21.70
2010,07,24,12,53,21.80
2010,07,24,12,54,21.80
2010,07,24,12,55,21.70
2010,07,24,12,56,21.60
2010,07,24,12,57,21.60
2010,07,24,12,58,21.60
2010,07,24,12,59,21.60
2010,07,24,13,00,21.60
2010,07,24,13,01,21.70
2010,07,24,13,02,21.80
2010,07,24,13,03,21.80
2010,07,24,13,04,21.80
2010,07,24,13,05,21.80
2010,07,24,13,06,21.80
2010,07,24,13,07,21.80
2010,07,24,13,08,21.80
2010,07,24,13,09,21.60
2010,07,24,13,10,21.60
2010,07,24,13,11,21.60
2010,07,24,13,12,21.40
2010,07,24,13,13,21.40
2010,07,24,13,14,21.50
2010,07,24,13,15,21.50
2010,07,24,13,16,21.40
2010,07,24,13,17,21.50
2010,07,24,13,18,21.60
2010,07,24,13,19,21.60
2010,07,24,13,20,21.60
2010,07,24,13,21,21.60
2010,07,24,13,22,21.60
2010,07,24,13,23,21.60
2010,07,24,13,24,21.60
2010,07,24,13,25,21.60
2010,07,24,13,26,21.70
2010,07,24,13,27,21.80
2010,07,24,13,28,21.80
2010,07,24,13,29,21.90
2010,07,24,13,30,22.00
2010,07,24,13,31,22.00
2010,07,24,13,32,21.90
2010,07,24,13,33,21.80
2010,07,24,13,34,21.80
2010,07,24,13,35,21.70
2010,07,24,13,36,21.70
2010,07,24,13,37,21.60
2010,07,24,13,38,21.60
2010,07,24,13,39,21.60
2010,07,24,13,40,21.50
2010,07,24,13,41,21.50
2010,07,24,13,42,21.60
2010,07,24,13,43,21.70
2010,07,24,13,44,21.80
2010,07,24,13,45,21.90
2010,07,24,13,46,22.00
2010,07,24,13,47,22.00
2010,07,24,13,48,22.00
2010,07,24,13,49,22.00
2010,07,24,13,50,22.00
2010,07,24,13,51,22.10
2010,07,24,13,52,22.10
2010,07,24,13,53,22.10
2010,07,24,13,54,22.10
2010,07,24,13,55,22.20
2010,07,24,13,56,22.30
2010,07,24,13,57,22.30
2010,07,24,13,58,22.40
2010,07,24,13,59,22.30
2010,07,24,14,00,22.30
2010,07,24,14,01,22.20
2010,07,24,14,02,22.10
2010,07,24,14,03,22.10
2010,07,24,14,04,22.10
2010,07,24,14,05,22.10
2010,07,24,14,06,22.00
2010,07,24,14,07,22.00
2010,07,24,14,08,21.90
2010,07,24,14,09,21.90
2010,07,24,14,10,21.80
2010,07,24,14,11,21.80
2010,07,24,14,12,21.90
2010,07,24,14,13,21.90
2010,07,24,14,14,21.90
2010,07,24,14,15,22.00
2010,07,24,14,16,22.00
2010,07,24,14,17,22.10
2010,07,24,14,18,22.30
2010,07,24,14,19,22.40
2010,07,24,14,20,22.30
2010,07,24,14,21,22.30
2010,07,24,14,22,22.30
2010,07,24,14,23,22.40
2010,07,24,14,24,22.50
2010,07,24,14,25,22.40
2010,07,24,14,26,22.40
2010,07,24,14,27,22.50
2010,07,24,14,28,22.40
2010,07,24,14,29,22.30
2010,07,24,14,30,22.30
2010,07,24,14,31,22.30
2010,07,24,14,32,22.40
2010,07,24,14,33,22.50
2010,07,24,14,34,22.50
2010,07,24,14,35,22.50
2010,07,24,14,36,22.40
2010,07,24,14,37,22.40
2010,07,24,14,38,22.50
2010,07,24,14,39,22.60
2010,07,24,14,40,22.70
2010,07,24,14,41,22.80
2010,07,24,14,42,22.90
2010,07,24,14,43,22.90
2010,07,24,14,44,22.90
2010,07,24,14,45,23.00
2010,07,24,14,46,23.10
2010,07,24,14,47,23.10
2010,07,24,14,48,22.90
2010,07,24,14,49,22.80
2010,07,24,14,50,22.70
2010,07,24,14,51,22.60
2010,07,24,14,52,22.50
2010,07,24,14,53,22.50
2010,07,24,14,54,22.60
2010,07,24,14,55,22.70
2010,07,24,14,56,22.80
2010,07,24,14,57,22.70
2010,07,24,14,58,22.60
2010,07,24,14,59,22.70
2010,07,24,15,00,22.70
2010,07,24,15,01,22.80
2010,07,24,15,02,22.70
2010,07,24,15,03,22.70
2010,07,24,15,04,22.60
2010,07,24,15,05,22.70
2010,07,24,15,06,22.70
2010,07,24,15,07,22.80
2010,07,24,15,08,22.90
2010,07,24,15,09,22.90
2010,07,24,15,10,22.80
2010,07,24,15,11,22.90
2010,07,24,15,12,22.90
2010,07,24,15,13,23.00
2010,07,24,15,14,23.10
2010,07,24,15,15,23.30
2010,07,24,15,16,23.30
2010,07,24,15,17,23.40
2010,07,24,15,18,23.60
2010,07,24,15,19,23.60
2010,07,24,15,20,23.50
2010,07,24,15,21,23.40
2010,07,24,15,22,23.30
2010,07,24,15,23,23.30
2010,07,24,15,24,23.30
2010,07,24,15,25,23.30
2010,07,24,15,26,23.30
2010,07,24,15,27,23.30
2010,07,24,15,28,23.30
2010,07,24,15,29,23.40
2010,07,24,15,30,23.40
2010,07,24,15,31,23.30
2010,07,24,15,32,23.30
2010,07,24,15,33,23.30
2010,07,24,15,34,23.30
2010,07,24,15,35,23.30
2010,07,24,15,36,23.30
2010,07,24,15,37,23.30
2010,07,24,15,38,23.30
2010,07,24,15,39,23.40
2010,07,24,15,40,23.40
2010,07,24,15,41,23.30
2010,07,24,15,42,23.30
2010,07,24,15,43,23.40
2010,07,24,15,44,23.50
2010,07,24,15,45,23.70
2010,07,24,15,46,23.80
2010,07,24,15,47,23.90
2010,07,24,15,48,23.90
2010,07,24,15,49,24.00
2010,07,24,15,50,24.10
2010,07,24,15,51,24.10
2010,07,24,15,52,24.20
2010,07,24,15,53,24.30
2010,07,24,15,54,24.30
2010,07,24,15,55,24.40
2010,07,24,15,56,24.40
2010,07,24,15,57,24.50
2010,07,24,15,58,24.60
2010,07,24,15,59,24.60
2010,07,24,16,00,24.60
2010,07,24,16,01,24.50
2010,07,24,16,02,24.50
2010,07,24,16,03,24.50
2010,07,24,16,04,24.60
2010,07,24,16,05,24.70
2010,07,24,16,06,24.70
2010,07,24,16,07,24.80
2010,07,24,16,08,24.90
2010,07,24,16,09,25.00
2010,07,24,16,10,25.00
2010,07,24,16,11,25.00
2010,07,24,16,12,25.10
2010,07,24,16,13,25.10
2010,07,24,16,14,25.10
2010,07,24,16,15,24.90
2010,07,24,16,16,24.90
2010,07,24,16,17,24.90
2010,07,24,16,18,25.00
2010,07,24,16,19,25.00
2010,07,24,16,20,24.90
2010,07,24,16,21,24.90
2010,07,24,16,22,25.00
2010,07,24,16,23,25.00
2010,07,24,16,24,25.00
2010,07,24,16,25,25.00
2010,07,24,16,26,25.10
2010,07,24,16,27,25.20
2010,07,24,16,28,25.30
2010,07,24,16,29,25.20
2010,07,24,16,30,25.00
2010,07,24,16,31,24.90
2010,07,24,16,32,24.90
2010,07,24,16,33,24.80
2010,07,24,16,34,24.80
2010,07,24,16,35,24.90
2010,07,24,16,36,24.90
2010,07,24,16,37,25.00
2010,07,24,16,38,25.00
2010,07,24,16,39,25.00
2010,07,24,16,40,25.10
2010,07,24,16,41,25.10
2010,07,24,16,42,25.20
2010,07,24,16,43,25.20
2010,07,24,16,44,25.20
2010,07,24,16,45,25.20
2010,07,24,16,46,25.20
2010,07,24,16,47,25.30
2010,07,24,16,48,25.30
2010,07,24,16,49,25.30
2010,07,24,16,50,25.40
2010,07,24,16,51,25.50
2010,07,24,16,52,25.60
2010,07,24,16,53,25.60
2010,07,24,16,54,25.70
2010,07,24,16,55,25.80
2010,07,24,16,56,25.80
2010,07,24,16,57,25.80
2010,07,24,16,58,25.80
2010,07,24,16,59,25.90
2010,07,24,17,00,26.00
2010,07,24,17,01,26.00
2010,07,24,17,02,26.00
2010,07,24,17,03,26.10
2010,07,24,17,04,26.00
2010,07,24,17,05,25.90
2010,07,24,17,06,25.90
2010,07,24,17,07,25.90
2010,07,24,17,08,26.00
2010,07,24,17,09,26.00
2010,07,24,17,10,26.00
2010,07,24,17,11,26.00
2010,07,24,17,12,26.10
2010,07,24,17,13,26.00
2010,07,24,17,14,25.90
2010,07,24,17,15,25.90
2010,07,24,17,16,25.90
2010,07,24,17,17,25.90
2010,07,24,17,18,25.90
2010,07,24,17,19,25.80